GW5288 Weather Reports


Display with metric or nautical units.
time (UTC)temp
F
wind
direction
speed
MPH
gust
MPH
rain 1hr
in
rain 24hr
in
rain mn
in
humidity
%
barometer
mb
20260505004233 75 191 0.0 1.0 0.00 0.00 0.18 96 1012.0
20260505003734 75 151 0.0 2.0 0.00 0.00 0.18 96 1013.0
20260505003235 75 161 0.0 0.0 0.00 0.00 0.18 96 1013.0
20260505002733 75 142 0.0 0.0 0.00 0.00 0.18 96 1013.0
20260505002234 75 22 1.0 1.0 0.00 0.00 0.18 96 1012.0
20260505001733 75 27 0.0 2.0 0.00 0.00 0.18 96 1012.0
20260505001233 75 306 1.0 2.0 0.00 0.00 0.18 96 1012.0
20260505000733 75 41 0.0 1.0 0.00 0.00 0.18 96 1012.0
20260505000233 75 198 1.0 3.0 0.00 0.00 0.18 96 1012.0
20260504235735 75 173 1.0 2.0 0.00 0.00 0.18 95 1012.0
20260504235233 75 186 2.0 3.0 0.00 0.00 0.18 95 1012.0
20260504234733 75 153 1.0 1.0 0.00 0.00 0.18 95 1012.0
20260504232736 76 134 1.0 3.0 0.00 0.00 0.18 94 1012.0
20260504232233 76 136 3.0 3.0 0.00 0.00 0.18 94 1012.0
20260504231734 77 115 1.0 2.0 0.00 0.00 0.18 94 1012.0
20260504231233 77 115 0.0 2.0 0.00 0.00 0.18 94 1011.0
20260504230733 77 315 0.0 1.0 0.00 0.00 0.18 93 1011.0
20260504230233 77 295 0.0 1.0 0.00 0.00 0.18 93 1011.0
20260504225734 77 144 1.0 1.0 0.00 0.00 0.18 93 1011.0
20260504225234 77 20 0.0 0.0 0.00 0.00 0.18 93 1011.0
20260504224734 77 35 0.0 2.0 0.00 0.00 0.18 93 1011.0
20260504224233 77 22 1.0 2.0 0.00 0.00 0.18 93 1011.0
20260504223733 77 44 0.0 2.0 0.00 0.00 0.18 92 1010.0
20260504223234 77 346 0.0 0.0 0.00 0.00 0.18 93 1010.0
20260504222733 77 211 2.0 2.0 0.00 0.00 0.18 92 1011.0
20260504222233 77 240 0.0 0.0 0.00 0.00 0.18 93 1010.0
20260504221733 77 221 2.0 2.0 0.00 0.00 0.18 93 1010.0
20260504221233 77 277 1.0 1.0 0.00 0.00 0.18 93 1010.0
20260504220734 77 209 1.0 1.0 0.00 0.00 0.18 93 1010.0
20260504220233 77 240 0.0 2.0 0.00 0.00 0.18 93 1010.0
20260504215733 77 330 1.0 1.0 0.00 0.00 0.18 93 1010.0
20260504215233 77 259 0.0 3.0 0.00 0.00 0.18 93 1010.0
20260504214733 77 205 2.0 3.0 0.00 0.00 0.18 93 1010.0
20260504214233 77 269 0.0 0.0 0.00 0.00 0.18 93 1010.0
20260504213734 77 226 1.0 4.0 0.00 0.00 0.18 93 1010.0
20260504213233 77 267 2.0 2.0 0.00 0.00 0.18 93 1010.0
20260504212733 77 225 2.0 4.0 0.00 0.00 0.18 93 1011.0
20260504212233 77 227 1.0 2.0 0.00 0.00 0.18 93 1010.0
20260504211733 77 203 0.0 5.0 0.00 0.00 0.18 93 1011.0
20260504211235 77 292 1.0 4.0 0.00 0.00 0.18 94 1011.0
20260504210734 77 209 4.0 5.0 0.00 0.00 0.18 93 1011.0
20260504210235 77 204 2.0 5.0 0.00 0.00 0.18 94 1011.0
20260504205733 77 213 3.0 4.0 0.00 0.00 0.18 94 1011.0
20260504205237 77 210 3.0 4.0 0.00 0.00 0.18 94 1011.0
20260504204733 77 221 4.0 6.0 0.00 0.00 0.18 94 1011.0
20260504204233 77 216 2.0 3.0 0.00 0.00 0.18 94 1011.0
20260504203733 78 198 0.0 2.0 0.00 0.00 0.18 94 1011.0
20260504203233 78 230 0.0 0.0 0.00 0.00 0.18 93 1011.0
20260504202734 78 319 1.0 3.0 0.00 0.00 0.18 93 1011.0
20260504202233 79 249 1.0 1.0 0.00 0.00 0.18 93 1012.0
20260504201734 79 256 1.0 4.0 0.00 0.00 0.18 94 1012.0
20260504201233 79 286 4.0 4.0 0.00 0.00 0.18 94 1012.0
20260504200734 79 286 4.0 4.0 0.00 0.00 0.18 95 1012.0
20260504200233 78 286 4.0 4.0 0.00 0.00 0.18 96 1012.0
20260504195734 78 286 4.0 4.0 0.00 0.00 0.18 96 1012.0
20260504195233 77 286 4.0 4.0 0.02 0.00 0.18 96 1012.0
20260504194734 77 136 1.0 2.0 0.09 0.00 0.18 96 1012.0
20260504194233 77 301 2.0 3.0 0.12 0.00 0.17 96 1012.0
20260504193734 77 269 0.0 4.0 0.12 0.00 0.16 96 1012.0
20260504193236 77 181 1.0 4.0 0.12 0.00 0.15 96 1013.0
20260504192733 77 236 2.0 3.0 0.09 0.00 0.14 96 1013.0
20260504192234 77 255 2.0 3.0 0.09 0.00 0.13 96 1013.0
20260504191733 77 338 3.0 3.0 0.07 0.00 0.13 96 1013.0
20260504191233 77 263 2.0 4.0 0.02 0.00 0.12 96 1013.0
20260504190734 77 308 3.0 4.0 0.00 0.00 0.11 97 1013.0
20260504190234 77 301 0.0 3.0 0.00 0.00 0.11 97 1013.0
20260504185734 77 280 0.0 2.0 0.00 0.00 0.11 97 1013.0
20260504185235 77 292 2.0 3.0 0.00 0.00 0.11 97 1013.0
20260504184733 77 317 0.0 3.0 0.00 0.00 0.11 97 1014.0
20260504184233 77 269 0.0 2.0 0.00 0.00 0.11 97 1014.0
20260504183735 77 278 1.0 2.0 0.00 0.00 0.11 97 1013.0
20260504183233 77 346 0.0 2.0 0.00 0.00 0.11 97 1014.0
20260504182734 77 15 3.0 3.0 0.00 0.00 0.11 97 1014.0
20260504182234 77 21 0.0 4.0 0.00 0.00 0.11 97 1014.0
20260504181733 77 10 0.0 3.0 0.02 0.00 0.11 97 1014.0
20260504181234 77 345 1.0 4.0 0.02 0.00 0.11 97 1014.0
20260504180734 77 18 3.0 4.0 0.00 0.00 0.11 97 1014.0
20260504180233 77 358 1.0 4.0 0.00 0.00 0.11 97 1014.0
20260504175733 77 227 0.0 3.0 0.00 0.00 0.11 97 1014.0
20260504175234 77 44 1.0 2.0 0.00 0.00 0.11 96 1015.0
20260504174733 77 5 1.0 2.0 0.00 0.00 0.11 96 1014.0
20260504174233 77 180 2.0 2.0 0.00 0.00 0.11 96 1015.0
20260504173733 77 145 1.0 1.0 0.00 0.00 0.11 97 1015.0
20260504173236 77 30 1.0 1.0 0.00 0.00 0.11 97 1015.0
20260504172733 77 17 0.0 0.0 0.00 0.00 0.11 96 1015.0
20260504172235 77 13 2.0 3.0 0.00 0.00 0.11 96 1015.0
20260504171734 77 107 3.0 3.0 0.00 0.00 0.11 97 1015.0
20260504171233 77 227 1.0 1.0 0.00 0.00 0.11 97 1015.0
20260504170735 77 89 0.0 3.0 0.00 0.00 0.11 97 1015.0
20260504170234 77 50 1.0 1.0 0.00 0.00 0.11 97 1015.0
20260504160234 76 325 0.0 1.0 0.00 0.00 0.11 98 1016.0
20260504150733 75 239 0.0 3.0 0.00 0.00 0.11 99 1016.0
20260504150235 74 129 0.0 2.0 0.00 0.00 0.11 99 1016.0
20260504141236 74 341 0.0 3.0 0.05 0.00 0.10 99 1016.0
20260504140737 74 38 0.0 3.0 0.05 0.00 0.09 99 1016.0
20260504140238 74 127 1.0 2.0 0.05 0.00 0.09 99 1016.0
20260504130733 73 8 2.0 5.0 0.05 0.00 0.07 99 1015.0
20260504130236 73 338 2.0 3.0 0.07 0.00 0.07 99 1015.0
20260504120234 73 54 0.0 2.0 0.00 0.00 0.06 99 1014.0
20260504110234 73 18 0.0 2.0 0.00 0.00 0.06 99 1014.0
20260504100234 73 347 1.0 3.0 0.14 0.00 0.06 99 1013.0
20260504081735 74 323 0.0 2.0 0.00 0.00 0.03 99 1013.0
20260504081234 74 156 0.0 1.0 0.00 0.00 0.03 99 1013.0
20260504080733 74 111 1.0 2.0 0.00 0.00 0.03 99 1013.0
20260504080233 74 324 0.0 2.0 0.00 0.00 0.03 99 1013.0
20260504070233 74 265 0.0 3.0 0.00 0.00 0.01 99 1013.0
20260504060235 75 291 0.0 1.0 0.00 0.00 0.00 99 1014.0
20260504050734 75 279 0.0 2.0 0.05 0.00 0.00 99 1014.0
20260504050234 75 309 0.0 2.0 0.05 0.00 0.00 99 1014.0
20260504045734 75 212 0.0 5.0 0.26 0.00 0.30 99 1014.0
20260504045233 75 162 3.0 5.0 0.26 0.00 0.29 99 1014.0
20260504044733 75 216 5.0 7.0 0.00 0.00 0.25 99 1015.0
20260504044234 75 177 5.0 5.0 0.21 0.00 0.25 99 1014.0
20260504043733 76 98 2.0 4.0 0.21 0.00 0.25 99 1014.0
20260504043234 75 155 4.0 5.0 0.00 0.00 0.21 99 1014.0
20260504042733 75 143 2.0 2.0 0.00 0.00 0.21 99 1014.0
20260504042233 75 57 0.0 0.0 0.00 0.00 0.21 99 1014.0
20260504041733 75 119 0.0 0.0 0.00 0.00 0.21 99 1014.0
20260504041233 75 56 0.0 0.0 0.00 0.00 0.21 99 1014.0
20260504040733 75 40 0.0 1.0 0.00 0.00 0.21 99 1014.0
20260504040233 75 52 0.0 0.0 0.00 0.00 0.21 99 1014.0
20260504035734 75 145 0.0 1.0 0.00 0.00 0.21 99 1014.0
20260504035233 75 123 0.0 0.0 0.00 0.00 0.21 99 1014.0
20260504034733 75 146 0.0 2.0 0.00 0.00 0.21 99 1014.0
20260504034233 75 193 0.0 2.0 0.00 0.00 0.21 99 1015.0
20260504033733 75 134 2.0 3.0 0.00 0.00 0.21 99 1014.0
20260504033233 75 148 2.0 3.0 0.00 0.00 0.21 99 1014.0
20260504032733 75 121 2.0 3.0 0.00 0.00 0.21 99 1014.0
20260504032233 75 126 0.0 1.0 0.00 0.00 0.21 99 1015.0
20260504031734 75 71 0.0 1.0 0.00 0.00 0.21 99 1014.0
20260504031234 75 126 0.0 2.0 0.00 0.00 0.21 98 1014.0
20260504030734 75 150 0.0 1.0 0.00 0.00 0.21 98 1014.0
20260504030233 75 171 0.0 3.0 0.00 0.00 0.21 98 1014.0
20260504025733 75 231 0.0 2.0 0.00 0.00 0.21 98 1014.0
20260504025233 75 83 0.0 1.0 0.00 0.00 0.21 98 1014.0
20260504024734 75 128 0.0 0.0 0.00 0.00 0.21 98 1014.0
20260504024233 76 131 0.0 1.0 0.00 0.00 0.21 98 1014.0
20260504023733 76 301 0.0 0.0 0.00 0.00 0.21 98 1014.0
20260504023234 76 25 0.0 0.0 0.00 0.00 0.21 98 1014.0
20260504022733 76 60 0.0 1.0 0.00 0.00 0.21 98 1014.0
20260504022233 76 10 0.0 1.0 0.00 0.00 0.21 98 1014.0
20260504021733 76 37 0.0 2.0 0.00 0.00 0.21 98 1014.0
20260504021233 76 221 0.0 1.0 0.00 0.00 0.21 98 1014.0
20260504020733 76 118 0.0 1.0 0.00 0.00 0.21 98 1014.0
20260504020233 76 291 0.0 2.0 0.00 0.00 0.21 98 1014.0
20260504015733 76 40 0.0 1.0 0.00 0.00 0.21 98 1014.0
20260504015233 76 49 0.0 2.0 0.00 0.00 0.21 98 1014.0
20260504014733 76 51 0.0 1.0 0.00 0.00 0.21 98 1013.0
20260504014233 76 180 1.0 1.0 0.00 0.00 0.21 98 1013.0
20260504013733 75 97 0.0 1.0 0.00 0.00 0.21 98 1013.0
20260504013233 75 43 0.0 1.0 0.00 0.00 0.21 98 1013.0
20260504012733 75 302 0.0 1.0 0.00 0.00 0.21 98 1013.0
20260504012233 75 124 0.0 2.0 0.00 0.00 0.21 98 1013.0
20260504011733 75 230 0.0 1.0 0.00 0.00 0.21 98 1013.0
20260504011234 75 299 0.0 0.0 0.00 0.00 0.21 98 1013.0
20260504010734 75 159 0.0 2.0 0.00 0.00 0.21 98 1013.0
20260504010233 76 163 2.0 2.0 0.00 0.00 0.21 98 1013.0
20260504005733 76 132 2.0 2.0 0.00 0.00 0.21 98 1013.0
20260504005233 76 227 0.0 2.0 0.00 0.00 0.21 98 1012.0
20260504004733 76 166 0.0 1.0 0.00 0.00 0.21 98 1012.0